User: anonymous   Login
Location: Unspecified
(0.0000°N, 0.0000°E)
Time: 11:10:05
(UTC+00:00)
Language:

BRITE TORONTO - Orbit

View from above orbital plane
View from above orbital plane
View from above satellite
View from above satellite

Ground track
Ground track

The orbit data is extracted from the following two-line orbital elements,

1 40020U 14033L   18019.06545951  .00000080  00000-0  22226-4 0  9997
2 40020  97.8053 244.7678 0087638   0.8583 359.2756 14.66461623191720
Epoch (UTC): 19 January 2018 01:34:15
Eccentricity: 0.0087638
inclination: 97.8053°
perigee height: 610 km
apogee height: 734 km
right ascension of ascending node: 244.7678°
argument of perigee: 0.8583°
revolutions per day: 14.66461623
mean anomaly at epoch: 359.2756°
orbit number at epoch: 19172

The dashed part of the orbit path shows where the satellite is in the earth's shadow,  

DLR